• MPC Preparation (Info)

  • MPEC 2016-O79 : 2014 GV53

    The following Minor Planet Electronic Circular may be linked-to from your own Web pages, but must not otherwise be redistributed electronically.

    A form allowing access to any MPEC is at the bottom of this page.


    Read MPEC 2016-O78 Read MPEC 2016-O80


    M.P.E.C. 2016-O79                                Issued 2016 July 17, 01:41 UT
    
         The Minor Planet Electronic Circulars contain information on unusual
             minor planets and routine data on comets.  They are published
        on behalf of Division F of the International Astronomical Union by the
              Minor Planet Center, Smithsonian Astrophysical Observatory,
                              Cambridge, MA 02138, U.S.A.
    
                 Prepared using the Tamkin Foundation Computer Network
    
                                  MPC@CFA.HARVARD.EDU
                URL https://www.minorplanetcenter.net/    ISSN 1523-6714
    
                                       2014 GV53
    
    Observations:
         K14G53V  C2011 05 01.43522 15 51 03.252-01 26 37.28         21.9 wLEO079F51
         K14G53V  C2011 05 01.44934 15 51 03.190-01 26 36.85         22.0 wLEO079F51
         K14G53V  C2011 05 01.46354 15 51 03.117-01 26 36.38         22.1 wLEO079F51
         K14G53V  C2011 05 01.47758 15 51 03.056-01 26 36.20         22.2 wLEO079F51
         K14G53V  C2012 06 13.33456 15 54 25.658-01 38 20.24         22.2 wLEO079F51
         K14G53V  C2012 06 13.34928 15 54 25.604-01 38 20.38         22.2 wLEO079F51
         K14G53V  C2012 06 13.36404 15 54 25.510-01 38 20.22         22.3 wLEO079F51
         K14G53V  C2013 05 12.44445 16 04 08.498-02 07 02.47         22.2 wLEO079F51
         K14G53V  C2013 05 12.45770 16 04 08.431-02 07 02.29         22.4 wLEO079F51
         K14G53V  C2013 05 12.47093 16 04 08.362-02 07 02.00         22.2 wLEO079F51
         K14G53V  C2013 05 12.48414 16 04 08.299-02 07 01.70         22.2 wLEO079F51
         K14G53V* C2014 04 05.56454 16 13 46.744-02 45 43.66         22.1 wLEO079F51
         K14G53V  C2014 04 05.58910 16 13 46.673-02 45 42.96         21.9 wLEO079F51
         K14G53V  C2014 04 05.60142 16 13 46.638-02 45 42.63         22.0 wLEO079F51
         K14G53V  C2014 05 07.44523 16 11 39.765-02 31 21.18         22.3 wLEO079F51
         K14G53V  C2014 05 07.45745 16 11 39.717-02 31 20.92         22.2 wLEO079F51
         K14G53V  C2014 05 07.46965 16 11 39.654-02 31 20.64         22.5 wLEO079F51
         K14G53V  C2014 05 07.48189 16 11 39.597-02 31 20.42         22.1 wLEO079F51
         K14G53V  C2014 06 02.35948 16 09 28.128-02 24 24.11         22.3 wLEO079F51
         K14G53V  C2014 06 02.36873 16 09 28.060-02 24 23.81         22.1 wLEO079F51
         K14G53V  C2014 06 02.37071 16 09 28.078-02 24 23.95         22.0 wLEO079F51
         K14G53V  C2014 06 02.37997 16 09 28.025-02 24 23.82         21.7 wLEO079F51
         K14G53V  C2014 06 02.39124 16 09 27.971-02 24 23.58         21.7 wLEO079F51
         K14G53V  C2014 06 02.39323 16 09 27.967-02 24 23.77         21.8 wLEO079F51
         K14G53V  C2014 07 27.31895 16 05 55.913-02 30 11.17         22.0 wLEO079F51
         K14G53V  C2014 07 27.33190 16 05 55.902-02 30 11.41         22.1 wLEO079F51
         K14G53V  C2014 07 27.34477 16 05 55.865-02 30 11.65         22.3 wLEO079F51
         K14G53V  C2014 07 27.35769 16 05 55.830-02 30 11.89         22.3 wLEO079F51
         K14G53V  C2015 03 28.58600 16 21 11.666-03 12 09.39         22.7 wLEO079F51
         K14G53V  C2015 03 28.59708 16 21 11.652-03 12 09.10         22.4 wLEO079F51
         K14G53V  C2015 03 28.60815 16 21 11.624-03 12 08.76         22.7 wLEO079F51
         K14G53V  C2015 03 28.61914 16 21 11.599-03 12 08.58         22.3 wLEO079F51
         K14G53V  C2015 05 18.52282 16 17 54.531-02 50 17.08         22.0 wLEO079F51
         K14G53V  C2015 05 18.54401 16 17 54.420-02 50 16.41         22.1 wLEO079F51
         K14G53V  C2015 05 18.55457 16 17 54.363-02 50 16.41         22.3 wLEO079F51
         K14G53V  C2015 07 06.28976 16 14 00.864-02 46 58.27         22.1 wLEO079F51
         K14G53V  C2015 07 06.31060 16 14 00.782-02 46 58.34         22.1 wLEO079F51
         K14G53V  C2015 07 06.32103 16 14 00.746-02 46 58.65         22.2 wLEO079F51
    
    Observer details:
    F51 Pan-STARRS 1, Haleakala.  Observers B. Gibson, T. Goggia, N. Primak,
        A. Schultz, M. Willman.  Measurers K. Chambers, S. Chastel, Y.-T. Chen,
        L. Denneau, H. Flewelling, M. Holman, M. Huber, R. Jedicke, M. Lackner,
        E. Lilly, H.-W. Lin, E. Magnier, M. Micheli, M. Payne, P. Veres,
        R. Wainscoat, C. Waters, R. Weryk.  1.8-m Ritchey-Chretien + CCD.
    
    Orbital elements:
    2014 GV53
    Epoch 2016 July 31.0 TT = JDT 2457600.5                 MPC
    M 348.17750              (2000.0)            P               Q
    n   0.00272183     Peri.  118.35623     -0.03645781     +0.98630809
    a  50.8036641      Node   148.28210     -0.99006250     -0.01377529
    e   0.2829448      Incl.   17.81343     -0.13582003     -0.16433681
    P 362              H    6.3           G   0.15           U   2
    Residuals in seconds of arc
    110501 F51  0.1-  0.0     140405 F51  0.0   0.0     140727 F51  0.1-  0.2+
    110501 F51  0.0   0.0     140507 F51  0.1-  0.1-    140727 F51  0.2-  0.2+
    110501 F51  0.0   0.2+    140507 F51  0.1+  0.1-    150328 F51  0.0   0.0
    110501 F51  0.1+  0.0     140507 F51  0.0   0.1-    150328 F51  0.1+  0.0
    120613 F51  0.0   0.0     140507 F51  0.1+  0.1-    150328 F51  0.1+  0.0
    120613 F51  0.2+  0.2-    140602 F51  0.0   0.2-    150328 F51  0.0   0.2-
    120613 F51  0.1-  0.0     140602 F51  0.3-  0.0     150518 F51  0.1-  0.2-
    130512 F51  0.0   0.1+    140602 F51  0.2+  0.1-    150518 F51  0.1-  0.1+
    130512 F51  0.0   0.0     140602 F51  0.1+  0.1-    150518 F51  0.2-  0.1-
    130512 F51  0.0   0.0     140602 F51  0.2+  0.1+    150706 F51  0.0   0.1+
    130512 F51  0.0   0.0     140602 F51  0.2+  0.2-    150706 F51  0.0   0.2+
    140405 F51  0.1-  0.1+    140727 F51  0.1-  0.1+    150706 F51  0.1+  0.0
    140405 F51  0.1-  0.1+    140727 F51  0.1+  0.1+
    
    Ephemeris:
    2014 GV53                a,e,i = 50.80, 0.28, 18                 q = 36.429
    Date    TT    R. A. (2000) Decl.     Delta      r     Elong.  Phase     V
    2016 06 17    16 22 31.8 -03 08 04  36.1256 37.0256   152.0     0.7    22.1
    ...
    2016 07 02    16 21 23.9 -03 08 53  36.2370 37.0216   140.0     1.0    22.1
    ...
    2016 07 10    16 20 53.0 -03 10 11  36.3174 37.0195   133.1     1.1    22.1
    ...
    2016 07 16    16 20 32.7 -03 11 33  36.3862 37.0179   127.8     1.2    22.1
    2016 07 17    16 20 29.6 -03 11 49  36.3983 37.0176   126.9     1.3    22.1
    2016 07 18    16 20 26.6 -03 12 05  36.4105 37.0173   126.0     1.3    22.1
    ...
    2016 07 24    16 20 10.3 -03 13 51  36.4875 37.0158   120.7     1.4    22.1
    ...
    2016 08 01    16 19 53.4 -03 16 41  36.5983 37.0136   113.4     1.4    22.2
    ...
    2016 08 16    16 19 38.6 -03 23 13  36.8243 37.0097    99.8     1.5    22.2
    
    A. U. Tomatic                (C) Copyright 2016 MPC           M.P.E.C. 2016-O79
    

    Read MPEC 2016-O78 Read MPEC 2016-O80


    MPEC number:

    Enter an MPEC number in one of the following forms:

    • 1997-B01 (the full form)
    • J97B01 (the packed version of the full form)
    • B01 (the abbreviated form)